Regional Weather Roundup
Issued by NWS Nashville, TN

Home | Current Version | Previous Version | Text Only | Print | Product List | Glossary On
Versions: 1 2 3 4 5 6 7 8 9 10 11 12 13 14 15 16 17 18 19 20 21 22 23 24 25 26 27 28 29 30 31 32 33 34 35 36 37 38 39 40 41 42 43 44 45 46 47 48 49 50
000
ASUS44 KOHX 201415
RWROHX
MIDDLE TENNESSEE HOURLY WEATHER ROUNDUP
NATIONAL WEATHER SERVICE NASHVILLE TN
900 AM CDT SUN APR 20 2014

NOTE: "FAIR" INDICATES FEW OR NO CLOUDS BELOW 12,000 FEET WITH
NO SIGNIFICANT WEATHER AND/OR OBSTRUCTIONS TO VISIBILITY.

* THESE REPORTS ARE NOT UNDER NWS QUALITY CONTROL AND MAY NOT
  REPORT WEATHER SUCH AS PRECIPITATION AND FOG.


TNZ005>011-023>034-057-059-062>066-078-080-201500
...NORTHERN MIDDLE TENNESSEE...

CITY           SKY/WX    TMP DP  RH WIND       PRES   REMARKS
BAXTER*          N/A     64  48  55 SW2         N/A
BRENTWOOD*       N/A     66  46  48 W5          N/A
CASTALIAN SPRG   N/A     59  50  72 NW1         N/A
CLARKSVILLE    SUNNY     59  43  55 SE3       30.24S
COLUMBIA       SUNNY     63  52  67 CALM      30.23S
CROSSVILLE     SUNNY     60  39  45 E6        30.26S
GALLATIN         N/A     59  45  59 CALM      30.24S
DICKSON        SUNNY     64  39  39 S7        30.23S
FAIRFIELD GLAD   N/A     61  43  51 SE2         N/A
GOODLETTSVILLE   N/A     57  45  62 CALM        N/A
JOELTON*         N/A     61  48  63 N2          N/A
LAFAYETTE*       N/A     55  43  62 SW2         N/A
LIVINGSTON     SUNNY     62  39  42 SW5       30.24S
MONTEREY         N/A     61  43  51 CALM        N/A
MOUNT JULIET*    N/A     61  50  67 CALM        N/A
NASHVILLE      MOSUNNY   62  43  49 CALM      30.24S
OLD HICKORY*     N/A     59  48  67 S2          N/A
PEGRAM*          N/A    N/A N/A N/A SW1         N/A
PORTLAND       SUNNY     55  41  58 CALM      30.23S
SMYRNA         SUNNY     59  46  61 CALM      30.25S
SPARTA         SUNNY     63  46  55 S3        30.24S
SPRINGFIELD*     N/A     63  50  63 MISG        N/A
WHITE BLUFF*     N/A     63  41  45 W2          N/A
$$
TNZ056-058-060-061-075>077-079-093>097-201500
...SOUTHERN MIDDLE TENNESSEE...

CITY           SKY/WX    TMP DP  RH WIND       PRES   REMARKS
BELLEVUE*        N/A     61  48  63 CALM        N/A
CULLEOKA*        N/A     61  46  59 SW2         N/A
EAGLEVILLE*      N/A    N/A N/A N/A W3          N/A
FAYETTEVILLE   SUNNY     59  47  64 SW7       30.25R
LEWISBURG      SUNNY     59  49  69 CALM      30.24R
MANCHESTER*      N/A     61  52  72 CALM        N/A
MCMINNVILLE    SUNNY     61  52  72 CALM      30.25S
MOUNT PLEASANT   N/A     66  54  63 SW2         N/A
MURFREESBORO   SUNNY     60  45  57 VRB3      30.24R
SHELBYVILLE    SUNNY     61  48  63 S3        30.25S
SPRING HILL*     N/A     64  46  52 SW5         N/A
TULLAHOMA      SUNNY     63  46  55 SW6       30.26R
WINCHESTER     SUNNY     61  48  63 W3        30.25S
$$


...KEY TO REMARKS...
VSB - VISIBILITY IN MILES
WCI - WIND CHILL INDEX
HX  - HEAT INDEX




USA.gov is the U.S. government's official web portal to all federal, state and local government web resources and services.